[[{"header":{"parameterUnit":"m.s-1","parameterCategory":1,"la1":30.2991,"la2":30.254,"lo1":-89.0895,"lo2":-89.0444,"dy":0.0017,"dx":0.0017,"nx":28,"ny":28,"refTime":"2025-11-08T03:00:00:Z","depth":0,"parameterNumber":2,"parameterNumberName":"U-component_of_WINDS"},"data":[0,0,0,0,0,0,0,0,0,0,0,0,0,0,0,0,0,0,0,0,0,0,0,0,0,0,0,0,0,0,0,0,0,0,0,0,0,0,0,0,0,0,0,0,0,0,0,0,0,0,0,0,0,0,0,0,0,0,0.3077,0.3079,0,0.325,0.3252,0.3254,0.3334,0.3334,0.3334,0.3334,0.3514,0.3519,0.3524,0,0,0,0,0,0,0,0,0,0,0,0,0,0.282,0.2824,0.3077,0.3079,0.3082,0.325,0.3252,0.3255,0.3334,0.3334,0.3334,0.3334,0.3512,0.3518,0.3524,0,0,0,0,0,0,0,0,0,0,0,0,0,0.2956,0.2826,0.3077,0.3142,0.3149,0.3249,0.3252,0.3255,0.3334,0.3334,0.3334,0.3334,0.351,0.3518,0.3525,0.3575,0,0,0.3547,0.3551,0,0,0,0,0,0,0,0,0.2948,0.2966,0.313,0.3137,0.3146,0.327,0.3228,0.3362,0.3334,0.3264,0.3334,0.3334,0.3433,0.3447,0.348,0.3583,0.3591,0.3548,0.3553,0.3556,0.3558,0,0,0,0,0,0,0,0.2939,0.2959,0.3146,0.3132,0.3142,0.3163,0.3182,0.3254,0.3348,0.327,0.3276,0.3296,0.3438,0.3473,0.3485,0.3594,0.3548,0.3554,0.3559,0.3562,0.3749,0.3749,0,0,0,0,0,0,0.2918,0.295,0.314,0.3151,0.3044,0.3168,0.3189,0.3231,0.3347,0.3365,0.3296,0.3299,0.346,0.3476,0.3491,0.3559,0.3556,0.3563,0.3567,0.3748,0.3749,0.375,0,0,0,0,0,0,0.2912,0.2935,0.3133,0.3052,0.3079,0.3173,0.3218,0.3234,0.3269,0.3366,0.3384,0.3314,0.3461,0.3481,0.3554,0.3567,0.3566,0.3573,0.3748,0.3749,0.3749,0.3694,0,0,0,0,0,0,0.2905,0.2932,0.2951,0.3052,0.3083,0.3191,0.3219,0.3238,0.3281,0.3287,0.3388,0.3405,0.3462,0.3542,0.3561,0.3577,0.3578,0.3747,0.3748,0.3749,0.3695,0.3693,0.369,0,0,0,0,0,0.2895,0.2929,0.2951,0.2974,0.3109,0.3192,0.321,0.3274,0.3282,0.3303,0.3365,0.3402,0.3562,0.3549,0.3571,0.3589,0.3747,0.3748,0.3749,0.3696,0.3693,0.3691,0,0,0,0,0,0,0.2827,0.2943,0.297,0.3036,0.3103,0.3205,0.3233,0.3269,0.3336,0.3338,0.3416,0.3438,0.3505,0.3554,0.3538,0.3644,0.3658,0.3663,0.361,0.3608,0.3606,0.3593,0.3585,0,0,0,0,0,0.2819,0.2876,0.2975,0.3024,0.3057,0.3139,0.3177,0.3221,0.3294,0.3323,0.3391,0.3462,0.3529,0.3571,0.3637,0.3702,0.3727,0.3725,0.3723,0.3721,0.3725,0.3765,0.3767,0.3753,0.3753,0.3753,0,0,0.2805,0.2875,0.2907,0.3013,0.307,0.3128,0.3162,0.3222,0.3267,0.3333,0.3406,0.3458,0.3542,0.3612,0.3646,0.3655,0.3734,0.3722,0.372,0.3726,0.3767,0.3768,0.3769,0.3754,0.3754,0.3754,0,0,0.2809,0.2867,0.2915,0.2972,0.3058,0.3113,0.3124,0.3221,0.3258,0.3332,0.3383,0.3438,0.355,0.3609,0.3653,0.368,0.3717,0.37,0.3689,0.3727,0.3728,0.3729,0.3741,0.3744,0.3703,0.3703,0.3703,0,0.278,0.2869,0.2936,0.2994,0.3039,0.3101,0.3152,0.3204,0.3307,0.3338,0.3347,0.349,0.3551,0.3636,0.3642,0.3676,0.3693,0.3689,0.3722,0.3724,0.3726,0.3738,0.3742,0.3701,0.3701,0.3701,0.3702,0,0.2831,0.2892,0.2921,0.3019,0.3068,0.3121,0.3198,0.324,0.3279,0.3333,0.3409,0.3484,0.3568,0.3591,0.363,0.3682,0.3685,0.3707,0.3722,0.3724,0.3737,0.3741,0.3697,0.3698,0.3699,0.3699,0,0,0.2796,0.2931,0.294,0.2987,0.3086,0.3136,0.3193,0.3274,0.3309,0.3379,0.343,0.3524,0.3545,0.3595,0.3642,0.3675,0.3694,0.3693,0.3696,0.3692,0.3758,0.3742,0.3746,0.3718,0.3719,0.372,0.3751,0,0.2815,0.2919,0.2981,0.3061,0.312,0.3179,0.323,0.3297,0.335,0.3408,0.3466,0.3532,0.3554,0.3585,0.362,0.3684,0.3708,0.3682,0.3769,0.3771,0.3747,0.3752,0.3736,0.3761,0.3756,0.3757,0.3758,0,0.285,0.2918,0.3003,0.3098,0.3125,0.3169,0.3249,0.3304,0.3382,0.3418,0.3474,0.3521,0.3586,0.3595,0.3686,0.3667,0.3706,0.3743,0.3745,0.3757,0.3765,0.3766,0.3771,0.3775,0.3766,0.3765,0.3765,0,0.2818,0.2931,0.2998,0.3035,0.3147,0.3176,0.3225,0.3303,0.3348,0.3419,0.3449,0.3526,0.3569,0.3628,0.3695,0.3695,0.378,0.3794,0.3814,0.3812,0.383,0.3828,0.3843,0.3852,0.3852,0.3852,0.3852,0,0.2833,0.2884,0.2985,0.3026,0.3084,0.3156,0.3213,0.3266,0.3335,0.3389,0.3445,0.3494,0.3579,0.364,0.3693,0.3761,0.378,0.3812,0.3826,0.3808,0.3804,0.3835,0.3836,0.3853,0.3853,0.3853,0.3852,0,0.2808,0.2877,0.2954,0.3054,0.308,0.3119,0.3205,0.3248,0.3303,0.3371,0.339,0.3478,0.3552,0.3624,0.3724,0.3759,0.3828,0.3846,0.3801,0.3809,0.3825,0.3823,0.3862,0.3872,0.3872,0.3872,0.3872,0,0.2813,0.2853,0.2958,0.2997,0.3044,0.3107,0.3153,0.3226,0.3272,0.3366,0.3398,0.3476,0.3542,0.3658,0.3731,0.3808,0.3829,0.3837,0.3841,0.3822,0.3831,0.3828,0.3834,0.3835,0.3835,0.3835,0.3834,0,0.2816,0.2849,0.2913,0.299,0.3044,0.3109,0.3175,0.3204,0.329,0.334,0.3416,0.3467,0.3569,0.3646,0.3732,0.3783,0.3824,0.3832,0.3841,0.3824,0.3797,0.3814,0.3797,0.3831,0.3832,0.3832,0.3832,0.3832,0.2808,0.2847,0.2927,0.2997,0.3055,0.3116,0.3161,0.3223,0.3287,0.3375,0.3414,0.3491,0.3571,0.369,0.3741,0.3803,0.3814,0.3826,0.3829,0.3832,0.3829,0.3786,0.3819,0.3819,0.3819,0.382,0.382,0,0.2815,0.287,0.2934,0.3025,0.3081,0.3113,0.3188,0.3234,0.33,0.3371,0.3435,0.3523,0.3599,0.3678,0.3759,0.3794,0.3815,0.3813,0.3812,0.3824,0.3814,0.3799,0.3795,0.3795,0.3795,0.3795,0.3795,0.3795,0.2825,0.2894,0.2936,0.3035,0.309,0.3165,0.3206,0.3263,0.332,0.3416,0.3479,0.353,0.3605,0.3691,0.3763,0.3785,0.3813,0.3806,0.3833,0.3822,0.3824,0.3825,0.3812,0.3811,0.3811,0.3838,0.3838,0.3838]},{"header":{"parameterUnit":"m.s-1","parameterCategory":1,"la1":30.2991,"la2":30.254,"lo1":-89.0895,"lo2":-89.0444,"dy":0.0017,"dx":0.0017,"nx":28,"ny":28,"refTime":"2025-11-08T03:00:00:Z","depth":0,"parameterNumber":3,"parameterNumberName":"V-component_of_WINDS"},"data":[0,0,0,0,0,0,0,0,0,0,0,0,0,0,0,0,0,0,0,0,0,0,0,0,0,0,0,0,0,0,0,0,0,0,0,0,0,0,0,0,0,0,0,0,0,0,0,0,0,0,0,0,0,0,0,0,0,0,2.7528,2.7528,0,2.7554,2.7554,2.7554,2.7549,2.7548,2.7548,2.7547,2.757,2.7571,2.7572,0,0,0,0,0,0,0,0,0,0,0,0,0,2.7473,2.7474,2.7528,2.7528,2.7529,2.7553,2.7554,2.7554,2.7549,2.7548,2.7548,2.7547,2.757,2.7571,2.7572,0,0,0,0,0,0,0,0,0,0,0,0,0,2.7497,2.7474,2.7528,2.7529,2.7529,2.7553,2.7554,2.7554,2.7549,2.7548,2.7547,2.7547,2.7569,2.7571,2.7572,2.7596,0,0,2.7577,2.7578,0,0,0,0,0,0,0,0,2.7496,2.7499,2.7528,2.7529,2.7529,2.7547,2.7543,2.7568,2.7549,2.7541,2.7547,2.7546,2.7563,2.7565,2.7571,2.7597,2.7598,2.7577,2.7578,2.7579,2.7579,0,0,0,0,0,0,0,2.7494,2.7498,2.7538,2.7529,2.7529,2.7528,2.753,2.7548,2.7555,2.7542,2.7542,2.7545,2.7563,2.757,2.7571,2.7598,2.7577,2.7579,2.7579,2.758,2.7648,2.7649,0,0,0,0,0,0,2.7493,2.7497,2.7537,2.7539,2.7511,2.7529,2.7532,2.7542,2.7555,2.7557,2.7545,2.7545,2.7567,2.757,2.7572,2.7603,2.7579,2.758,2.7581,2.7647,2.7648,2.7649,0,0,0,0,0,0,2.7491,2.7496,2.7536,2.7518,2.7523,2.7531,2.7542,2.7543,2.755,2.7558,2.7559,2.7551,2.7567,2.757,2.7591,2.7604,2.7581,2.7582,2.7646,2.7648,2.7649,2.7664,0,0,0,0,0,0,2.749,2.7496,2.7505,2.7518,2.7524,2.7555,2.7543,2.7544,2.7553,2.7552,2.7564,2.7565,2.7566,2.7589,2.7593,2.7606,2.7584,2.7645,2.7647,2.7648,2.7663,2.7666,2.7669,0,0,0,0,0,2.7488,2.7507,2.7505,2.751,2.7535,2.7556,2.7559,2.7561,2.7554,2.7563,2.7569,2.7564,2.7602,2.7591,2.7595,2.7609,2.7644,2.7646,2.7648,2.7661,2.7665,2.7669,0,0,0,0,0,0,2.7492,2.7508,2.7507,2.7531,2.7542,2.7555,2.7566,2.7565,2.7578,2.7576,2.7578,2.758,2.7602,2.7607,2.7595,2.7634,2.7622,2.7625,2.763,2.7634,2.7637,2.7636,2.7585,0,0,0,0,0,2.7497,2.7512,2.7525,2.7544,2.7551,2.7558,2.7566,2.7568,2.7579,2.7583,2.7591,2.7601,2.7616,2.7625,2.7638,2.7663,2.7667,2.7675,2.7678,2.768,2.7683,2.77,2.7704,2.7656,2.7656,2.7656,0,0,2.7504,2.7515,2.7524,2.7546,2.7555,2.7571,2.7561,2.7578,2.7591,2.7585,2.7607,2.7613,2.7625,2.7649,2.7659,2.7653,2.7697,2.7683,2.7685,2.7686,2.7702,2.7707,2.7711,2.7657,2.7657,2.7657,0,0,2.7528,2.7537,2.7556,2.7566,2.7581,2.7586,2.7591,2.7604,2.7609,2.763,2.7628,2.7642,2.7666,2.7676,2.7684,2.7715,2.7712,2.7719,2.7735,2.7751,2.7755,2.7758,2.7772,2.7776,2.7721,2.7721,2.7721,0,2.7535,2.7561,2.7565,2.7584,2.7594,2.7593,2.7612,2.7621,2.7639,2.7646,2.764,2.7673,2.768,2.7708,2.7716,2.7721,2.7728,2.7718,2.7754,2.7758,2.7761,2.7774,2.7779,2.7722,2.7722,2.7722,2.7722,0,2.7571,2.7589,2.7602,2.7623,2.7634,2.7653,2.7661,2.7672,2.7673,2.7679,2.7703,2.7712,2.7729,2.7735,2.7735,2.7764,2.776,2.7754,2.7742,2.7767,2.7779,2.7784,2.7724,2.7723,2.7723,2.7723,0,0,2.7596,2.7621,2.7626,2.7637,2.7655,2.7669,2.7688,2.7707,2.7718,2.773,2.7748,2.777,2.7765,2.7775,2.7776,2.779,2.7817,2.7782,2.7782,2.779,2.7853,2.7859,2.7864,2.7815,2.7816,2.7816,2.7852,0,2.7623,2.7659,2.7665,2.7697,2.7715,2.7715,2.7733,2.7746,2.7753,2.7769,2.7775,2.7792,2.7783,2.779,2.7803,2.7811,2.783,2.7808,2.7832,2.7833,2.7831,2.787,2.7876,2.791,2.7857,2.7858,2.7858,0,2.7658,2.7675,2.771,2.7729,2.7737,2.7753,2.7772,2.7787,2.7802,2.7806,2.7819,2.7819,2.784,2.7827,2.7857,2.7842,2.7852,2.7858,2.7859,2.7863,2.7848,2.7877,2.792,2.7926,2.7865,2.7865,2.7864,0,2.7676,2.7707,2.7733,2.7742,2.7764,2.7776,2.7785,2.78,2.7812,2.7829,2.7837,2.7855,2.7865,2.7879,2.7885,2.7874,2.7915,2.7902,2.792,2.792,2.793,2.7929,2.7977,2.7933,2.7933,2.7933,2.7933,0,2.7706,2.7727,2.7742,2.7758,2.7783,2.779,2.7815,2.7824,2.7838,2.7856,2.7856,2.7873,2.7878,2.7896,2.79,2.7926,2.793,2.7935,2.7936,2.7936,2.7936,2.7944,2.7942,2.7934,2.7934,2.7934,2.7933,0,2.773,2.774,2.7769,2.7789,2.7795,2.7813,2.783,2.7846,2.7854,2.7877,2.7882,2.7894,2.7916,2.7923,2.7947,2.7951,2.7982,2.798,2.7978,2.7978,2.7998,2.7997,2.8054,2.8063,2.801,2.8011,2.8011,0,2.7748,2.7766,2.7789,2.7803,2.7814,2.7834,2.7848,2.7856,2.787,2.7891,2.7905,2.7927,2.7945,2.798,2.799,2.801,2.801,2.8028,2.8012,2.8013,2.8013,2.8013,2.8016,2.8032,2.8032,2.8033,2.8033,0,2.7782,2.7788,2.7808,2.7831,2.7848,2.7866,2.7884,2.7894,2.7905,2.7921,2.7945,2.7959,2.7987,2.8009,2.8031,2.804,2.8039,2.8038,2.8044,2.8045,2.8044,2.8048,2.7988,2.8037,2.8036,2.8036,2.8036,2.8036,2.7805,2.7822,2.7843,2.7867,2.7882,2.7899,2.7917,2.7928,2.7949,2.7974,2.7977,2.8003,2.802,2.8049,2.806,2.8081,2.8075,2.8083,2.8085,2.8088,2.8091,2.804,2.8084,2.8084,2.8084,2.8084,2.8084,0,2.7841,2.7855,2.7877,2.7904,2.7923,2.7923,2.7943,2.7959,2.7983,2.8,2.802,2.8048,2.8071,2.8085,2.8108,2.8122,2.8122,2.8128,2.8128,2.8131,2.8093,2.8087,2.8127,2.8127,2.8127,2.8127,2.8127,2.8127,2.7862,2.7892,2.7901,2.7939,2.7953,2.7981,2.7993,2.8009,2.8024,2.8057,2.8077,2.8087,2.8104,2.8129,2.815,2.8153,2.8163,2.8169,2.8173,2.8137,2.8133,2.8128,2.8123,2.8171,2.8171,2.8209,2.821,2.821]}]]